Content
SEND FEEDBACK

Daily
Averages
Monthly
Summary
France

AVIGNON, FRANCE


Home > Europe > France
Elevation: 187 feet     Latitude: 44 00N     Longitude: 004 45E

WEATHER
 
SELECT A DAY
Number of Records: 167,144;   Date Range: 5/17/04 - 7/23/14
 
SHARE

PRINT THIS DATA

[ ← Previous Day ]
WEATHER ALMANAC - APRIL 28, 2013
[ Next Day → ]
[ °C ]   °F
Weather ElementAverageHighLow
Temperature45 °F48.2 °F (11:00 am)39.2 °F (3:30 am)
Dewpoint41.5 °F46.4 °F (3:30 pm)37.4 °F (12:30 am)
Humidity87.4 %100 % (4:30 pm)71 % (9:30 am)
Barometer29.87 in29.95 in (11:00 pm)29.80 in (12:30 am)
Wind Speed9.7 mph15 mph (8:00 pm)
Weather ElementAverage
Visibility6.1 mi
Wind DirectionWNW (299.1 °)

Weather ElementTotal
Precipitation---
Heating Degree Days21.3 (Base 65)
Averaged from 46 records on April 28, 2013
WEATHER CONDITIONS BREAKOUT
WIND DIRECTION BREAKOUT
WEATHER BY HOUR - APRIL 28, 2013
[ °C ]   °F
Local TimeTemperatureDewpointHumidityBarometerVisibilityWind DirectionWind SpeedGust SpeedPrecipitationEventsConditions
12:30 AM41.0 °F37.4 °F87 %29.80 in6.2 miNNW (330°)5.8 mph
1:00 AM41.0 °F37.4 °F87 %29.80 in6.2 miNW (310°)4.6 mph
1:30 AM41.0 °F37.4 °F87 %29.83 in6.2 miNNW (330°)6.9 mph
2:00 AM41.0 °F37.4 °F87 %29.80 in6.2 miNNW (330°)10.4 mph
2:30 AM41.0 °F37.4 °F87 %29.80 in6.2 miNorth (350°)8.1 mph
3:00 AM41.0 °F37.4 °F87 %29.80 in6.2 miNorth (360°)9.2 mph
3:30 AM39.2 °F37.4 °F93 %29.80 in6.2 miNNW (340°)6.9 mph
4:00 AM39.2 °F37.4 °F93 %29.80 in6.2 miNNW (340°)6.9 mph
4:30 AM41.0 °F37.4 °F87 %29.83 in6.2 miNorth (360°)5.8 mph
5:00 AM41.0 °F37.4 °F87 %29.80 in6.2 miNorth (350°)6.9 mph
5:30 AM42.8 °F39.2 °F87 %29.80 in6.2 miNorth (350°)12.7 mph
6:00 AM42.8 °F39.2 °F87 %29.83 in6.2 miNorth (10°)9.2 mph
6:30 AM42.8 °F37.4 °F81 %29.83 in6.2 miNorth (10°)10.4 mph
7:00 AM42.8 °F37.4 °F81 %29.80 in6.2 miNorth (360°)13.8 mph
7:30 AM42.8 °F37.4 °F81 %29.83 in6.2 miNorth (10°)8.1 mph
8:00 AM42.8 °F37.4 °F81 %29.83 in6.2 miNorth (10°)6.9 mph
9:00 AM46.4 °F39.2 °F76 %29.86 in6.2 miNorth (350°)10.4 mph
9:30 AM46.4 °F37.4 °F71 %29.86 in6.2 miNorth (10°)11.5 mph
10:00 AM46.4 °F39.2 °F76 %29.89 in6.2 miNorth (350°)6.9 mphOvercast
10:30 AM46.4 °F39.2 °F76 %29.89 in6.2 miNorth (360°)13.8 mphOvercast
11:00 AM48.2 °F41.0 °F76 %29.89 in6.2 miNorth (360°)10.4 mphRainLight Rain
11:30 AM48.2 °F41.0 °F76 %29.89 in6.2 miNorth (10°)9.2 mphOvercast
12:00 PM48.2 °F42.8 °F82 %29.89 in6.2 miNorth (360°)9.2 mphRainLight Rain
12:30 PM48.2 °F42.8 °F82 %29.92 in6.2 miNorth (350°)10.4 mphRainLight Rain
1:00 PM48.2 °F42.8 °F82 %29.89 in6.2 miNorth (350°)11.5 mphRainLight Rain
1:30 PM48.2 °F42.8 °F82 %29.89 in6.2 miNorth (350°)9.2 mphRainRain
2:00 PM48.2 °F44.6 °F87 %29.89 in5.6 miNorth (350°)8.1 mphRainLight Rain
2:30 PM46.4 °F44.6 °F93 %29.89 in6.2 miNorth (350°)11.5 mphRainLight Rain
3:00 PM46.4 °F44.6 °F93 %29.89 in6.2 miNorth (360°)11.5 mphRainLight Rain
3:30 PM48.2 °F46.4 °F93 %29.89 in6.2 miNorth (360°)10.4 mphOvercast
4:00 PM48.2 °F44.6 °F87 %29.89 in6.2 miNorth (360°)11.5 mphOvercast
4:30 PM46.4 °F46.4 °F100 %29.89 in4.3 miNorth (10°)10.4 mphOvercast
5:00 PM46.4 °F44.6 °F93 %29.86 in6.2 miNorth (360°)13.8 mphOvercast
5:30 PM46.4 °F44.6 °F93 %29.89 inNW (320°)9.2 mphRainHeavy Rain
6:00 PM46.4 °F46.4 °F100 %29.89 in6.2 miNNW (340°)10.4 mphRainLight Rain
6:30 PM46.4 °F44.6 °F93 %29.86 in6.2 miNorth (360°)11.5 mphRainLight Rain
7:00 PM46.4 °F44.6 °F93 %29.89 inNorth (360°)8.1 mphRainRain
7:30 PM46.4 °F44.6 °F93 %29.89 in6.2 miNorth (360°)11.5 mphRainLight Rain
8:00 PM46.4 °F44.6 °F93 %29.89 in5.0 miNorth (360°)15.0 mphRainLight Rain
8:30 PM46.4 °F44.6 °F93 %29.89 in6.2 miNorth (360°)9.2 mphRainLight Rain
9:00 PM46.4 °F44.6 °F93 %29.89 in6.2 miNorth (360°)11.5 mphRainLight Rain
9:30 PM46.4 °F44.6 °F93 %29.92 in6.2 miNorth (360°)9.2 mphRainLight Rain
10:00 PM46.4 °F44.6 °F93 %29.92 in6.2 miNorth (360°)6.9 mphRainLight Rain
10:30 PM46.4 °F44.6 °F93 %29.92 in6.2 miNorth (360°)9.2 mphRainLight Rain
11:00 PM46.4 °F44.6 °F93 %29.95 in6.2 miNorth (360°)11.5 mphRainLight Rain
11:30 PM46.4 °F44.6 °F93 %29.95 in6.2 miNorth (350°)11.5 mphRainLight Rain
Hourly data recorded from LFMV, located miles away from Avignon, France







STORIES FROM OUR PARTNERS